Theta_e
316 324 322 321 319 317 320 319 317 317 317 317 316 317 316 316 316 315 320 322 325 331 331 331 333 330 328 328 327 328 327 326 325 325 326 326 327 329 329 329 329 330 330 329 330 330 330 329 329 327 324 321 319 317 317 315 314 313 312 311 310 309 308 306 306 305 305 304 305 305 305 305 304 305 305 304 305 305 304 304 304 305 305 306 306 307
321 324 320 322 320 316 316 315 314 315 316 317 317 317 315 315 317 314 319 322 323 331 333 331 332 329 327 329 328 328 327 326 325 324 325 325 327 328 329 329 328 328 328 328 329 328 327 326 324 322 319 317 317 316 315 313 312 311 310 309 308 307 306 305 305 305 304 304 304 304 304 305 304 304 304 304 304 304 305 305 306 306 307 308 308 308
326 322 319 318 313 312 314 314 316 317 319 320 317 316 315 315 317 313 318 322 321 332 338 330 330 331 328 329 329 329 328 326 326 324 324 325 326 325 326 329 328 327 328 328 328 327 325 323 321 319 318 316 315 313 312 311 310 310 309 308 307 306 305 305 304 304 304 304 304 304 304 304 304 304 305 305 306 307 309 310 311 311 311 311 311 310
322 318 317 311 309 314 316 313 317 319 318 319 318 318 317 315 317 315 316 318 320 330 334 329 329 330 328 329 329 329 329 327 326 325 324 325 326 324 324 326 327 328 328 328 328 327 325 321 319 317 316 314 311 311 310 309 309 309 308 307 307 306 305 304 304 304 304 304 303 303 303 303 304 305 307 308 310 311 313 314 315 316 316 315 313 310
321 316 312 308 312 318 317 314 318 320 317 317 320 322 320 317 318 317 314 316 322 326 328 328 330 331 330 329 329 329 329 328 326 326 325 325 326 325 324 324 325 328 328 328 328 327 324 320 318 316 313 311 310 310 309 309 309 308 307 306 305 305 304 304 304 304 304 304 303 303 302 303 304 306 308 310 312 314 315 316 317 318 319 317 314 310
319 313 310 313 318 317 317 318 318 319 319 317 319 322 322 320 317 316 314 316 325 329 327 325 328 333 331 328 329 329 328 328 326 325 325 325 325 325 325 324 324 326 328 329 329 327 323 319 316 314 312 311 310 310 309 309 308 307 306 305 305 305 304 304 304 304 304 303 302 302 303 304 306 309 312 315 316 317 318 318 319 319 320 319 317 313
317 313 312 318 320 319 320 319 315 319 322 319 318 318 320 320 317 316 315 317 325 327 324 321 322 329 330 328 329 329 329 329 327 325 325 325 326 325 325 324 323 323 326 328 328 326 321 317 315 314 312 311 310 309 308 307 306 306 306 305 305 304 304 304 304 304 303 302 302 303 306 309 312 315 317 318 319 319 319 320 320 320 320 321 320 318
316 317 318 320 323 323 323 317 314 319 322 318 316 316 318 318 317 317 317 318 321 321 320 320 320 322 327 328 326 327 330 329 328 326 325 325 326 326 325 324 323 322 325 327 327 324 319 317 315 313 311 310 309 308 307 307 307 306 305 305 304 304 304 304 304 303 302 302 303 305 310 314 317 318 319 319 319 320 320 320 321 321 321 321 321 321
315 319 319 321 325 322 320 319 317 317 318 317 315 314 316 316 316 317 316 319 321 319 319 320 317 317 326 328 322 325 330 328 329 328 325 325 325 326 326 325 324 323 324 326 325 321 318 317 315 312 310 309 308 308 308 307 307 305 305 305 305 305 304 303 303 302 301 303 306 309 313 315 317 318 319 319 319 320 320 321 321 321 321 321 321 322
313 316 315 319 325 321 319 319 317 318 316 314 313 315 316 315 318 319 317 322 322 318 319 322 318 315 325 330 323 325 329 327 328 327 325 324 324 326 326 325 325 324 323 324 323 320 318 317 315 312 309 308 307 307 307 306 305 304 305 305 305 304 304 303 302 302 303 306 309 312 315 316 317 318 318 319 319 319 320 321 321 321 321 321 321 322
314 314 313 315 318 317 317 314 312 314 312 310 314 319 319 320 326 327 327 326 321 321 325 324 320 314 320 331 328 327 331 329 327 326 325 324 323 325 326 326 326 324 323 323 322 319 318 318 314 311 310 309 309 308 306 305 304 304 305 305 305 304 303 302 301 302 304 306 310 313 315 316 317 318 318 318 318 318 319 319 320 320 320 321 321 322
317 315 314 313 312 313 316 314 311 311 310 313 321 322 318 322 326 328 329 325 320 325 327 322 320 314 317 329 328 323 326 326 325 326 325 323 322 324 324 326 326 324 324 323 322 320 319 318 314 312 312 311 311 311 307 304 304 305 305 305 305 303 302 302 301 302 304 306 310 314 316 316 317 317 318 318 317 317 318 318 319 319 320 320 321 321
321 317 316 313 313 313 315 317 316 317 318 320 327 329 325 325 324 325 328 323 320 325 322 319 321 317 319 327 325 321 320 319 320 322 323 321 321 323 323 324 325 325 324 323 323 321 320 318 314 314 313 310 313 312 307 304 305 305 306 305 304 303 302 302 301 302 303 305 309 313 315 315 316 317 317 317 317 317 317 317 318 318 318 318 319 320
327 322 321 317 315 313 314 320 321 322 322 319 323 328 328 328 324 325 327 321 320 324 320 318 321 321 323 323 321 323 319 314 314 316 320 321 320 321 322 323 324 325 324 324 324 322 321 319 315 314 312 310 313 311 306 305 305 306 305 304 303 303 302 302 302 303 304 306 310 312 313 314 315 315 316 317 317 316 316 316 316 317 317 317 318 319
325 323 325 319 315 315 315 320 321 322 321 317 320 321 322 330 328 323 326 325 324 326 321 318 320 326 327 320 318 319 314 312 314 314 316 319 320 321 321 322 323 324 324 324 324 323 322 320 317 315 311 309 311 309 306 306 306 306 305 305 306 304 302 302 302 304 305 307 310 312 313 313 313 314 315 316 316 316 317 317 317 317 317 317 318 319
319 320 324 317 312 314 313 313 315 320 321 314 315 318 317 325 331 323 320 324 324 322 321 319 321 326 325 319 317 316 315 315 314 313 314 316 318 320 320 321 322 323 324 323 324 324 323 321 319 316 311 308 309 309 308 306 307 307 307 308 308 305 303 303 303 303 304 307 310 312 312 312 312 313 314 316 316 317 317 317 318 318 318 318 319 319
318 321 324 318 313 313 313 313 312 314 319 317 315 319 317 317 328 326 316 318 319 318 323 321 321 326 322 317 321 322 324 324 317 315 316 315 318 319 320 321 321 322 323 323 323 324 324 322 320 317 311 308 311 311 308 307 307 308 309 310 310 307 304 303 303 303 305 306 307 309 310 310 311 312 314 315 317 317 318 318 318 319 319 320 320 320
318 324 326 319 316 315 311 312 312 310 314 319 317 319 317 314 324 327 321 323 321 320 327 323 320 327 324 321 326 324 325 329 324 319 317 317 319 319 320 321 321 322 322 322 323 323 324 322 321 318 311 309 312 311 308 308 308 309 310 311 311 309 305 303 303 303 305 304 303 305 308 310 312 313 314 316 317 318 318 318 318 319 319 320 319 320
315 322 326 320 317 318 315 313 316 315 313 314 315 316 316 318 326 326 322 326 322 318 327 326 320 321 322 327 331 323 325 333 327 321 321 320 319 319 320 320 320 321 321 322 322 323 323 323 322 318 311 311 313 310 308 309 310 310 311 311 311 310 306 304 304 303 304 304 302 303 307 311 313 314 315 317 317 317 318 318 318 318 318 318 318 318
313 317 322 321 316 315 320 320 319 323 319 314 315 316 318 324 328 323 319 323 323 319 323 325 322 323 325 330 333 326 329 334 329 328 325 320 318 320 320 320 320 321 321 322 322 322 323 323 322 318 311 312 313 310 309 310 311 311 311 311 311 310 307 305 305 305 304 303 302 302 306 310 313 314 315 316 317 317 317 317 317 317 317 317 316 316
317 316 318 326 322 315 322 322 317 322 321 319 319 318 321 322 318 317 317 319 322 323 325 324 324 331 333 328 327 326 329 331 329 331 326 317 318 321 319 320 321 320 321 322 322 322 322 322 323 317 311 313 314 309 309 310 311 312 311 311 311 311 308 306 306 306 304 303 302 302 305 310 312 314 315 316 316 316 316 316 316 316 316 316 315 315
318 318 319 325 326 321 323 320 316 318 322 324 321 318 325 326 321 321 321 320 321 321 324 323 322 332 335 325 324 325 324 322 319 320 320 316 318 320 320 321 321 320 321 321 321 322 322 323 322 317 312 314 313 309 310 312 312 312 312 312 312 311 309 307 307 306 304 303 303 303 306 310 313 314 315 316 315 315 315 315 315 315 315 314 314 314
318 324 325 323 322 320 319 315 311 314 320 323 320 320 325 326 327 330 326 325 323 317 319 321 321 333 335 322 321 321 316 313 312 314 316 316 318 320 320 320 320 320 321 321 321 321 321 322 322 317 313 315 313 310 312 314 313 313 313 312 312 312 310 308 308 306 304 303 303 304 307 310 313 315 315 315 315 314 314 314 314 314 314 313 313 313
320 325 325 327 329 324 321 319 314 316 322 321 319 322 321 319 326 332 329 327 325 320 323 323 321 333 335 318 312 313 312 312 312 314 315 316 318 319 319 320 320 320 321 320 320 321 320 321 321 317 315 314 313 312 315 316 314 313 313 312 312 312 310 309 308 306 304 304 304 305 308 311 313 315 315 315 314 314 314 313 313 313 313 313 313 311
319 322 323 326 331 328 329 330 325 325 328 323 320 321 320 320 323 325 323 321 322 324 326 325 325 332 334 322 316 316 316 314 312 313 316 317 317 318 319 320 320 320 320 320 320 320 320 320 320 319 316 315 314 314 316 316 314 313 313 313 313 312 310 309 308 306 304 304 304 307 310 312 313 315 315 314 314 314 313 313 313 313 313 312 312 310
318 322 323 323 326 325 326 329 327 327 325 321 320 320 319 321 320 320 321 319 322 324 321 322 328 329 329 330 329 328 326 322 316 314 315 316 317 318 318 319 319 319 319 320 320 320 320 320 320 320 318 316 315 315 316 316 315 314 313 313 312 312 310 309 309 307 304 303 304 307 311 312 312 314 314 313 314 313 313 313 313 313 312 311 310 308
319 319 323 327 327 324 324 327 325 321 319 320 322 320 319 319 319 321 322 322 325 325 321 326 328 324 324 328 329 329 333 331 321 314 314 316 317 318 319 318 319 319 319 319 319 319 320 319 320 320 319 318 316 316 317 316 315 314 314 313 312 312 310 309 309 307 304 304 304 307 311 312 312 313 312 312 313 312 312 312 312 311 310 308 307 304
322 319 321 324 324 323 324 325 320 317 319 322 322 320 320 319 318 319 321 322 324 321 323 331 329 322 324 330 329 328 331 331 323 314 314 316 316 317 319 318 318 318 318 319 318 319 319 319 320 320 319 319 317 317 317 316 315 314 314 313 312 312 311 309 309 307 304 304 304 307 311 312 312 312 312 312 312 312 311 311 310 309 306 305 304 302
324 320 317 317 321 323 324 323 320 319 320 321 321 321 321 320 319 319 321 324 322 318 322 330 328 323 325 330 330 325 321 321 319 315 316 316 315 316 317 317 318 318 318 318 318 319 319 319 319 319 319 319 318 317 317 316 315 315 314 314 312 312 311 309 309 307 304 304 304 306 311 313 312 312 311 311 312 311 311 310 309 306 302 301 301 299
320 321 318 316 319 324 325 324 321 320 320 320 321 322 322 322 320 319 321 322 320 318 321 323 322 322 321 321 323 319 314 314 314 314 316 315 315 315 315 316 317 317 318 318 318 319 319 319 319 319 319 319 318 317 317 316 315 315 314 314 313 312 310 309 309 306 304 303 304 306 310 312 312 311 311 311 311 311 310 309 307 303 299 298 298 297
315 319 321 319 320 326 329 325 320 319 319 320 321 320 320 320 319 317 318 319 318 319 321 319 317 320 318 313 313 314 313 313 313 313 314 315 316 315 315 316 316 317 318 318 318 319 319 319 319 318 319 319 318 317 317 316 316 315 314 314 313 312 310 309 309 307 304 303 303 306 310 311 311 310 311 311 310 310 309 309 307 302 299 297 297 297
317 319 320 320 321 326 328 323 320 319 318 319 320 320 318 317 318 319 319 320 319 320 321 317 317 326 324 313 311 313 312 311 312 313 314 315 315 315 315 316 316 316 317 317 318 318 318 319 319 318 318 318 318 317 317 316 315 314 314 314 313 311 310 310 309 307 304 302 303 306 309 310 311 310 310 310 310 309 309 309 307 303 299 298 297 297
321 323 324 321 321 325 324 320 320 319 319 321 323 324 321 317 318 319 319 321 319 317 319 319 320 328 323 314 315 319 315 311 312 314 315 315 315 315 315 316 316 316 316 317 317 318 318 318 318 318 319 318 318 318 317 317 315 315 315 314 313 311 310 310 309 307 304 302 303 306 309 310 311 310 310 310 309 309 309 308 307 304 301 298 297 297
322 324 323 320 320 325 324 319 317 318 320 325 327 328 323 319 319 318 318 320 319 317 320 320 320 323 320 316 319 320 316 315 315 315 316 315 315 315 316 316 316 316 316 317 317 317 318 318 318 319 319 318 318 318 317 317 316 315 315 314 313 311 310 310 309 306 304 302 303 306 308 309 310 310 310 309 309 309 309 308 307 305 301 298 297 297
324 322 320 318 318 322 323 321 320 322 324 325 324 322 317 314 315 316 318 320 319 319 321 322 322 322 318 315 315 314 314 315 315 315 316 316 315 316 316 317 317 316 316 316 316 317 318 318 318 318 318 318 319 318 317 317 316 315 314 314 312 311 311 310 308 306 304 302 302 305 307 309 310 310 310 309 309 308 308 308 307 304 300 298 297 296
325 323 320 318 317 318 319 320 321 323 323 323 321 317 314 314 314 315 320 325 325 325 324 325 326 320 313 313 314 314 314 314 314 315 316 316 316 316 316 317 317 317 317 317 317 317 318 318 318 318 318 318 318 318 317 317 316 314 314 313 312 311 311 309 307 306 304 302 302 303 306 309 310 310 310 309 308 307 306 306 306 303 300 298 297 296
320 323 321 318 316 318 320 320 321 320 320 324 324 316 315 318 318 318 320 324 326 323 319 324 328 318 311 314 316 314 314 315 317 318 316 316 316 316 317 318 317 317 318 317 318 318 317 318 318 318 318 318 318 318 318 317 317 315 314 313 312 311 311 309 307 305 302 301 301 302 305 308 309 309 309 308 307 306 305 306 305 302 300 298 297 296
314 319 322 320 317 317 319 319 320 321 321 327 328 320 314 314 315 316 318 321 321 314 310 318 326 318 312 314 315 314 316 319 324 323 317 315 317 317 317 318 317 317 318 317 318 318 318 318 318 318 318 318 318 318 317 317 317 315 314 313 312 312 311 309 306 304 301 301 301 301 303 306 308 309 308 307 306 305 304 305 304 302 301 300 299 298
314 316 319 320 318 317 317 319 321 322 322 327 329 321 313 311 313 315 319 324 321 312 310 315 319 315 313 313 314 317 319 321 325 324 316 316 318 317 317 318 317 318 318 318 318 318 318 318 318 318 318 318 318 318 317 317 317 315 314 313 313 313 312 309 306 304 301 301 301 301 302 305 307 308 307 306 304 303 302 303 303 303 303 302 301 301
317 317 318 318 319 319 318 320 321 320 321 324 325 319 312 312 315 317 322 327 323 314 313 316 315 314 316 314 314 318 321 321 322 321 316 316 318 317 317 318 317 318 318 317 318 318 317 318 317 317 317 317 317 317 317 316 316 315 313 313 313 314 312 309 306 304 302 301 301 301 302 304 307 307 306 305 303 301 301 302 303 304 304 303 303 303
318 318 317 317 319 318 317 319 319 320 323 323 320 316 312 313 318 321 323 326 321 315 315 316 315 315 316 315 315 317 318 317 318 318 316 316 317 317 317 317 317 317 317 317 317 317 317 317 316 316 316 317 317 317 316 316 315 314 313 313 314 315 313 309 306 303 302 301 301 302 302 304 306 306 305 304 302 301 300 301 302 304 304 304 303 303
319 319 317 316 318 318 318 319 319 321 321 316 313 312 311 314 323 326 323 319 316 316 316 316 316 316 316 316 316 316 316 316 316 317 316 317 317 316 316 317 317 317 316 316 316 316 316 316 316 316 316 316 316 316 316 315 314 313 313 314 315 315 313 309 305 303 302 301 301 302 302 303 305 305 304 303 302 301 300 300 301 303 304 304 303 302
320 322 321 320 319 318 317 318 320 324 322 313 312 315 314 317 324 324 318 315 316 316 316 316 316 317 316 316 316 316 316 316 316 316 316 316 316 316 316 316 316 316 316 316 316 315 316 316 315 315 315 315 315 315 315 315 314 313 313 314 315 315 312 308 305 303 302 301 301 301 301 302 304 304 305 303 302 300 300 300 301 303 304 303 302 301
320 321 324 324 320 319 321 321 322 324 321 314 315 318 317 317 319 317 315 316 316 316 316 317 317 317 316 316 316 316 316 316 316 317 317 316 316 316 316 316 316 316 316 316 316 315 315 315 315 315 315 315 315 315 315 315 314 313 314 315 315 315 312 308 305 303 302 301 302 302 301 302 303 304 304 303 302 301 300 300 300 301 302 302 301 300
320 318 320 321 320 319 323 323 319 316 315 313 314 317 316 315 316 315 315 316 316 316 317 317 317 317 316 316 316 316 316 316 316 316 316 316 316 316 316 316 316 316 316 316 316 316 316 316 316 315 315 315 315 315 315 315 314 314 315 315 315 314 311 307 305 303 302 302 302 302 302 302 302 303 303 303 302 301 300 300 300 300 301 301 300 300
317 313 312 317 320 317 317 317 314 313 315 315 315 315 316 315 316 316 315 315 315 316 316 316 316 317 316 316 316 316 316 316 316 316 316 316 316 316 316 316 316 316 316 316 316 316 316 316 315 315 315 315 315 315 315 315 315 315 315 316 315 314 311 307 305 304 302 302 302 303 302 302 302 302 302 303 302 300 300 300 300 299 300 300 300 300
315 311 313 318 320 318 319 320 316 313 315 316 315 315 316 315 316 316 316 316 316 316 316 316 316 316 316 316 316 316 316 317 316 316 316 316 316 316 316 316 316 316 316 316 316 316 316 315 315 315 315 315 315 315 315 315 316 316 316 315 314 313 310 307 305 304 302 302 302 303 303 302 301 301 302 302 301 300 300 300 299 299 299 300 300 301
315 312 316 319 318 317 319 319 315 313 315 315 314 315 315 315 316 316 316 316 316 315 316 315 315 315 316 316 316 316 316 316 316 316 316 316 316 316 316 316 316 316 316 316 316 316 316 315 316 315 315 315 315 315 315 315 316 316 315 314 313 311 309 306 305 304 302 302 302 303 303 302 302 301 301 301 300 300 300 300 300 300 300 300 300 300
313 313 316 318 318 318 317 315 313 314 316 314 314 316 315 315 316 315 315 315 315 315 315 315 315 316 315 315 315 315 315 315 315 315 316 316 316 316 316 316 316 316 316 316 316 316 316 316 316 315 315 316 315 315 315 315 315 316 315 314 312 310 308 306 306 304 303 302 302 303 303 303 302 302 301 300 300 300 300 300 300 300 300 300 300 301
313 314 315 315 317 318 317 315 315 316 317 315 315 316 315 315 315 315 315 315 315 315 315 315 315 315 315 315 315 315 315 315 315 315 315 315 315 316 316 316 316 316 316 316 316 316 316 316 316 315 315 315 315 315 315 315 315 315 314 313 311 309 307 307 306 304 303 302 302 303 303 303 303 302 301 300 299 300 300 300 300 300 300 300 300 301
314 315 315 315 316 316 315 315 315 315 315 315 315 315 315 315 315 315 315 315 315 315 315 315 315 315 315 314 314 315 315 315 314 315 315 315 315 315 315 316 316 316 316 316 316 316 316 316 316 315 315 315 315 315 315 315 315 315 314 313 311 309 308 307 306 305 303 302 302 302 303 303 303 303 302 301 300 300 300 300 300 300 300 300 301 301
Wind_Speed
4 4 2 2 3 4 5 5 5 4 7 8 7 6 6 6 4 4 2 3 7 6 1 2 1 1 3 4 6 9 9 9 8 10 13 13 12 12 12 13 13 12 11 10 10 10 9 9 8 8 8 8 8 8 8 9 10 10 11 12 13 13 12 12 12 12 13 13 13 14 14 15 16 17 18 18 19 19 19 20 19 19 18 19 19 20
4 5 1 5 6 4 3 5 7 6 6 6 6 7 4 3 4 1 3 4 4 5 2 1 3 1 2 4 6 9 8 8 11 12 12 16 16 14 15 17 15 13 12 12 12 11 11 10 10 10 9 9 9 9 9 10 10 11 12 13 13 13 13 13 14 14 15 15 15 16 17 18 18 19 20 20 20 20 19 19 19 19 18 17 17 16
5 1 5 6 4 5 5 6 8 7 6 5 4 6 4 2 2 3 3 3 1 3 2 1 3 0 0 3 5 7 6 5 10 13 11 15 18 18 19 20 18 15 14 15 15 13 13 12 11 11 10 11 11 10 10 10 11 12 13 14 14 14 14 14 14 15 15 16 17 18 19 20 20 20 20 20 20 19 18 17 17 18 18 17 16 14
3 3 6 2 5 7 6 5 8 7 5 4 4 5 4 3 2 1 1 2 2 3 4 4 4 2 0 3 4 6 8 5 7 13 14 16 20 21 20 18 18 18 18 18 17 15 14 14 13 12 12 12 11 10 10 10 11 13 14 15 15 15 14 14 14 15 16 17 18 18 19 19 19 18 17 15 15 15 14 13 13 14 14 14 14 12
2 6 2 5 4 6 7 4 5 7 3 2 3 5 4 4 4 4 4 3 4 6 4 6 4 3 3 5 6 5 8 6 5 11 16 20 23 23 20 18 18 20 21 19 18 18 17 16 15 15 14 12 10 10 11 12 13 14 15 15 14 14 14 14 15 16 17 17 18 18 18 18 16 15 14 13 12 12 12 12 12 12 11 11 11 10
1 4 1 5 5 6 7 3 3 6 2 3 2 5 6 6 5 6 7 5 4 4 2 3 3 4 3 5 7 4 6 9 6 9 16 22 25 25 25 24 20 21 23 21 20 20 20 19 18 16 14 11 11 11 12 12 13 14 14 13 13 13 14 15 16 16 17 17 18 19 19 18 16 14 13 13 13 13 12 13 13 13 12 11 10 9
1 3 2 5 6 7 6 2 2 5 5 1 4 6 5 6 7 8 8 4 2 1 3 3 3 3 4 4 7 5 6 9 7 8 14 21 26 27 29 29 25 24 24 23 22 23 22 20 18 16 13 12 12 12 12 12 12 12 12 12 12 12 13 15 16 16 16 16 17 17 16 14 13 12 11 11 11 12 12 13 13 13 13 12 10 9
2 4 6 5 6 6 5 1 3 5 7 1 4 6 6 6 7 8 7 4 2 2 2 3 3 0 3 5 5 7 7 8 8 10 13 19 26 28 31 32 29 27 25 25 25 24 22 20 17 15 12 12 12 12 11 11 11 11 11 10 11 12 13 15 15 15 14 15 15 14 11 10 9 10 9 9 9 10 10 11 11 12 12 11 10 9
1 2 1 4 6 4 2 3 6 7 4 3 3 7 5 5 5 5 6 3 1 3 2 3 0 1 4 6 2 5 7 8 11 12 14 19 25 29 32 33 31 28 26 27 27 25 22 19 17 15 12 10 11 12 12 12 11 11 10 10 11 12 12 13 13 13 13 13 13 11 8 7 7 7 8 7 8 8 8 9 10 11 11 10 10 10
0 2 3 5 5 2 4 4 6 7 2 4 6 7 5 6 5 4 5 4 3 3 3 6 3 2 5 5 2 2 5 8 12 11 14 22 25 28 31 33 32 29 28 28 28 26 22 19 18 15 11 10 11 13 13 12 11 11 10 10 11 11 11 12 12 12 12 12 11 8 6 6 6 6 6 6 6 7 7 8 8 9 10 10 10 10
4 3 3 2 2 4 3 1 2 3 3 6 6 6 6 5 5 4 3 4 5 1 5 6 5 4 3 5 2 3 5 9 11 9 10 18 25 28 32 34 33 31 31 30 29 27 23 21 19 14 11 12 14 15 14 12 11 10 10 11 11 11 11 11 11 11 11 11 10 8 7 7 7 6 6 7 7 6 7 7 8 9 10 10 10 10
7 2 1 2 1 2 3 4 2 3 5 6 4 4 4 3 4 4 4 4 4 2 5 4 4 6 3 5 5 7 9 7 8 8 9 15 25 32 34 35 35 33 33 31 30 29 26 23 20 14 15 17 16 15 14 12 11 10 10 11 12 12 11 11 11 11 11 10 9 7 7 7 8 8 8 8 9 8 8 8 8 8 8 9 10 10
4 0 3 4 1 1 3 2 3 6 5 5 4 5 4 2 3 2 3 2 1 4 3 1 2 3 5 7 6 9 11 10 10 13 15 18 26 33 35 36 36 35 34 33 32 31 28 25 20 16 19 21 16 14 13 12 10 8 9 10 11 11 11 10 10 10 10 9 8 6 6 7 8 8 9 9 10 10 9 9 9 9 9 9 10 10
3 4 6 4 1 2 3 4 0 2 3 3 3 4 3 2 3 1 3 1 3 3 1 2 2 1 4 5 5 8 11 15 17 21 23 22 24 29 33 34 34 35 36 36 34 32 29 26 21 17 20 21 16 13 12 11 9 7 7 8 8 9 9 9 9 9 9 8 7 6 6 6 7 8 8 8 9 10 10 10 10 10 9 10 10 11
1 3 4 1 2 3 2 3 4 4 3 1 3 5 3 4 4 2 3 2 3 2 2 3 1 2 2 3 5 7 10 13 17 21 23 23 21 20 23 28 31 34 36 36 36 34 32 27 22 20 22 21 15 12 11 10 7 5 5 5 6 7 7 7 7 7 7 6 6 6 6 7 7 7 7 8 9 10 10 10 10 10 10 9 10 11
2 3 6 4 3 1 2 1 4 5 3 1 2 4 1 3 4 2 2 4 2 1 1 2 2 4 4 4 5 6 6 7 8 13 17 20 19 15 17 24 29 32 34 34 35 35 34 29 24 23 23 21 15 11 10 10 7 5 3 4 6 7 6 7 6 6 6 6 6 7 8 8 7 6 6 8 9 9 9 10 10 10 10 9 9 11
2 3 6 5 2 1 2 1 2 3 1 1 1 1 3 3 6 4 1 1 3 1 2 1 2 5 3 3 5 6 5 6 5 4 9 14 15 15 18 23 27 31 33 33 34 34 35 32 27 25 24 21 15 10 11 10 8 5 2 4 6 7 6 7 7 7 7 7 7 9 10 8 6 4 5 7 8 8 9 10 10 10 9 9 10 10
3 2 6 3 1 3 5 3 4 5 3 1 1 3 3 2 4 4 1 3 4 0 3 2 2 5 3 1 5 6 5 6 5 4 4 7 11 16 21 24 26 29 31 32 33 33 34 33 30 27 25 20 13 10 12 10 9 7 3 4 5 7 7 7 8 8 8 9 9 10 9 6 3 4 5 6 8 8 9 9 9 9 9 10 10 10
3 1 7 2 2 6 6 4 3 5 4 2 2 2 2 2 0 1 1 0 1 1 3 4 3 3 2 3 4 4 5 6 5 4 3 7 13 19 22 23 25 27 29 31 32 32 34 34 32 29 25 19 13 12 13 11 10 8 4 4 5 6 7 8 9 10 10 11 10 10 8 5 3 5 5 6 8 8 8 8 8 8 9 10 10 11
2 2 4 5 3 4 6 3 1 4 5 3 2 2 2 2 3 1 1 2 2 1 2 3 4 2 5 5 4 6 8 6 5 5 6 11 18 23 24 24 26 28 30 32 33 33 34 34 33 30 25 19 13 14 15 13 12 10 7 6 6 6 6 8 9 11 12 12 11 10 8 5 3 4 5 6 7 8 8 8 8 9 9 10 11 12
2 3 1 6 4 3 3 0 4 3 2 2 2 1 1 1 2 1 0 1 3 3 2 1 2 4 6 4 6 8 8 6 8 8 8 15 22 24 25 25 27 30 31 32 33 34 34 34 33 29 24 18 15 16 17 16 14 11 9 8 8 8 7 8 9 11 12 12 11 10 7 4 2 2 3 5 6 8 9 9 9 10 10 11 12 13
1 2 1 3 5 2 4 5 3 5 5 4 2 3 3 2 2 1 2 2 1 2 3 3 2 7 6 3 5 7 5 7 12 11 11 18 24 25 25 26 27 29 31 32 33 33 33 34 34 29 25 21 19 20 19 17 16 13 11 10 9 9 9 8 10 12 13 12 10 8 5 3 2 1 2 3 5 7 9 9 10 10 11 12 13 13
2 3 2 1 3 4 8 7 1 3 5 5 2 2 3 3 4 4 2 3 0 1 1 3 1 6 6 3 4 6 7 9 13 15 15 19 23 24 25 26 27 29 30 30 31 32 33 34 34 30 27 24 22 22 21 19 17 15 13 11 11 11 10 9 10 12 13 12 9 7 5 3 2 2 3 3 5 7 9 9 10 11 12 13 12 12
2 3 3 2 4 5 7 5 4 4 5 5 2 1 2 2 2 4 4 3 2 2 2 1 2 6 6 4 4 7 8 8 11 15 19 20 20 22 24 25 26 28 28 29 31 31 32 33 33 32 30 27 26 25 22 19 18 16 15 14 13 12 11 10 11 12 12 12 8 5 4 3 2 3 4 4 5 6 8 9 10 11 12 12 12 11
1 1 2 2 4 6 6 6 5 5 4 2 2 3 2 3 4 2 2 3 1 3 4 3 4 6 5 5 6 6 5 5 8 12 18 20 19 20 23 24 26 27 28 29 30 31 32 34 34 34 33 30 28 25 21 20 19 18 17 16 15 14 12 12 12 12 12 11 7 4 5 4 3 4 4 4 5 6 8 9 9 10 11 11 10 9
2 1 3 3 0 2 2 3 3 3 2 1 1 3 3 3 3 1 1 3 1 3 3 4 4 6 6 6 6 6 5 6 7 7 13 18 20 20 21 23 25 27 28 29 30 32 33 34 35 35 34 33 30 25 22 22 21 19 19 18 17 15 14 13 13 12 12 11 7 5 7 6 4 5 5 5 5 7 8 9 9 9 10 11 9 7
3 1 2 5 5 5 5 6 5 2 0 3 3 2 1 1 2 3 3 2 3 2 2 5 5 5 8 7 6 7 6 5 7 7 11 16 20 21 21 23 25 26 27 29 30 32 33 34 35 35 36 35 31 27 25 23 22 21 21 20 19 17 16 15 14 13 12 10 7 5 8 7 6 6 5 5 5 6 7 8 9 10 11 10 8 6
4 1 1 5 5 7 7 7 3 2 2 4 3 4 3 3 3 4 3 4 4 3 4 7 5 4 7 8 6 8 7 6 8 12 14 16 19 22 23 23 25 26 28 29 31 32 33 34 35 35 37 37 32 29 28 24 21 22 22 21 20 19 17 16 15 13 11 10 7 6 9 8 7 6 6 5 5 6 7 8 10 11 11 9 6 5
5 1 2 3 3 6 5 5 2 1 3 3 3 6 5 4 6 5 6 6 6 5 7 6 6 7 8 7 6 9 10 8 10 13 14 15 17 19 21 23 25 26 28 29 31 32 33 34 35 34 36 37 34 32 30 25 23 24 23 23 22 20 19 17 15 12 11 10 8 8 10 10 9 8 7 6 5 6 7 9 10 10 8 7 5 5
3 1 2 2 3 6 5 6 4 2 2 3 5 8 7 6 7 7 6 6 7 8 9 6 6 8 9 8 11 16 17 14 13 15 15 17 18 18 19 22 24 26 28 29 30 31 31 32 34 34 35 37 36 35 32 28 25 26 25 24 23 22 20 18 15 12 11 10 9 9 11 11 10 8 7 7 6 7 8 9 10 8 6 6 5 5
1 2 0 3 2 6 6 4 1 1 1 4 8 8 8 8 7 5 5 4 5 6 7 5 5 7 8 10 15 21 21 16 15 18 19 19 19 17 17 20 22 26 28 29 29 30 30 32 34 34 34 36 37 37 34 30 28 27 27 25 24 23 20 18 16 13 11 11 10 11 12 11 10 9 8 7 7 8 8 9 8 6 5 5 5 4
1 1 1 4 1 5 5 4 4 3 2 4 10 11 10 8 6 4 4 5 5 4 4 3 3 6 6 5 9 14 14 11 14 17 18 18 17 17 19 21 23 25 28 29 30 31 30 31 33 34 34 35 37 37 36 34 30 27 27 27 25 23 20 18 16 13 11 11 11 12 13 12 11 10 9 8 8 8 8 8 7 5 4 4 3 4
3 3 1 2 1 5 5 4 3 4 5 5 8 7 6 5 5 4 4 5 6 4 3 3 5 6 5 3 5 8 9 9 13 16 16 15 13 14 17 21 24 25 26 29 31 30 28 29 31 33 33 34 35 36 36 35 30 24 24 27 26 23 21 19 16 13 12 12 13 13 13 13 13 11 10 9 9 8 8 7 6 5 4 3 2 3
3 4 2 2 2 5 5 4 4 4 3 5 6 6 5 4 5 5 6 7 6 4 3 5 6 7 6 5 6 8 11 14 18 19 17 15 15 15 16 19 21 23 25 27 29 27 25 26 28 29 31 32 35 36 35 35 32 26 23 25 25 23 21 19 16 14 13 13 13 13 14 14 14 13 11 11 10 8 8 7 6 5 3 0 2 3
3 4 2 1 2 3 3 4 4 4 6 7 6 4 5 4 5 7 8 8 7 6 6 7 8 9 10 11 11 13 18 21 22 21 19 17 16 16 16 15 16 18 20 22 24 25 24 25 26 27 29 32 35 37 37 37 36 29 24 26 26 23 21 19 16 14 14 14 14 15 15 15 14 14 13 12 10 9 8 7 6 4 2 2 3 3
5 4 2 1 2 1 2 3 1 6 7 7 7 4 2 1 2 1 5 7 6 7 7 6 8 9 10 12 11 11 14 16 16 17 16 15 15 15 15 13 11 13 14 15 17 20 20 21 22 23 26 30 34 36 38 39 36 28 24 27 27 23 21 19 17 15 15 15 15 15 16 16 15 15 14 12 11 10 8 8 6 4 3 4 4 4
6 4 2 2 2 2 1 2 3 5 7 7 4 1 2 1 3 4 1 6 8 7 8 6 6 7 9 9 7 8 8 7 7 8 7 9 12 13 12 11 9 10 11 12 15 18 17 19 20 22 25 29 33 36 38 39 37 30 26 27 27 23 21 20 18 17 16 16 15 16 16 17 16 16 14 13 12 10 9 8 7 5 4 5 5 5
4 3 5 4 2 2 3 2 3 4 5 6 6 6 3 3 6 7 3 5 8 7 8 8 5 6 8 8 7 6 7 6 5 6 7 8 10 10 10 10 9 9 10 11 15 18 19 20 21 23 26 30 34 37 39 38 36 32 28 27 26 24 23 21 19 18 17 16 15 16 17 17 17 16 15 13 11 10 9 9 8 6 5 5 5 5
4 2 4 4 1 3 4 2 2 2 5 7 7 7 2 6 8 5 5 5 8 5 4 8 6 7 8 7 7 5 6 5 5 6 8 9 8 7 8 9 9 9 11 12 15 17 18 19 21 23 27 30 34 37 38 38 36 33 30 28 26 25 24 21 18 17 16 16 15 16 17 17 17 16 14 12 11 10 9 9 9 8 7 6 6 5
5 4 3 3 3 3 4 2 3 4 6 7 7 5 5 9 7 6 5 6 7 2 4 7 6 7 6 5 5 4 4 2 4 5 7 8 7 6 6 7 8 10 11 11 12 13 13 15 17 19 22 25 30 34 36 36 34 33 32 28 26 26 23 18 17 17 16 15 16 16 17 17 17 16 14 12 11 10 10 10 10 10 9 8 8 7
2 1 2 3 3 3 4 3 4 4 6 7 7 7 10 8 5 4 1 7 7 4 6 8 7 6 5 4 4 2 2 4 5 5 5 6 6 5 5 5 6 7 7 7 8 9 10 11 12 14 16 20 25 30 33 33 33 34 32 29 27 26 21 16 16 17 16 16 17 17 17 17 17 15 14 12 11 10 11 11 11 11 11 10 9 8
1 1 1 2 2 2 3 3 3 5 7 5 4 7 10 6 2 3 6 7 7 8 7 8 8 6 7 7 7 7 7 7 7 7 6 6 6 4 3 3 3 4 5 6 7 8 9 10 11 12 14 16 20 24 27 30 33 35 33 30 28 24 19 16 17 18 17 17 18 18 18 17 16 15 14 13 12 11 11 12 12 12 12 12 10 9
4 2 2 3 3 2 1 1 1 5 5 8 11 7 5 6 4 5 6 6 9 10 9 9 10 9 9 12 12 11 11 10 10 10 9 9 9 8 6 5 5 5 6 7 8 9 9 10 10 10 11 12 15 18 22 27 33 35 33 30 27 22 19 18 18 19 18 19 19 19 19 18 17 16 15 14 13 12 12 13 14 14 14 13 12 11
3 4 3 3 3 3 2 3 4 5 7 13 12 4 6 10 9 8 7 9 10 11 12 13 13 12 12 14 15 14 14 13 13 13 13 13 12 12 11 11 10 9 9 9 8 8 8 8 8 8 9 10 12 14 18 25 31 35 34 29 25 22 20 19 19 19 20 20 20 20 19 19 18 17 16 15 14 13 13 14 15 15 15 14 13 12
6 6 4 3 4 4 5 8 8 6 6 12 14 11 10 12 13 12 12 14 15 15 16 16 15 16 17 17 17 17 17 17 16 16 16 17 16 15 14 14 13 12 11 11 10 10 10 10 10 10 11 11 13 15 18 23 30 33 32 28 24 22 21 20 20 21 21 22 21 20 20 19 19 18 17 16 15 15 15 15 16 16 16 15 14 13
7 6 4 1 3 4 8 11 12 12 15 17 19 18 16 17 17 17 18 20 20 20 20 19 20 21 21 20 19 18 19 19 19 19 19 19 19 18 17 16 15 14 13 14 14 14 13 14 14 14 13 13 16 18 19 23 28 30 29 26 23 22 21 20 21 22 23 23 23 21 20 20 20 20 19 18 17 16 16 15 16 16 16 16 15 14
4 5 4 2 3 3 6 8 9 13 20 21 20 20 20 19 19 19 20 22 22 22 21 21 21 21 20 19 18 18 18 17 18 20 21 21 21 21 20 19 18 17 16 16 16 17 17 18 20 18 15 14 17 19 21 24 27 28 27 25 22 21 21 22 23 23 24 25 24 22 21 21 21 21 21 20 19 18 18 17 17 17 18 17 17 16
2 2 3 4 4 4 8 12 12 14 17 17 16 18 20 21 21 20 19 20 22 22 22 23 23 21 18 16 15 15 16 15 15 18 19 20 22 23 23 22 21 19 19 18 19 20 21 22 23 23 19 16 18 21 23 25 27 28 28 25 23 22 23 24 24 24 24 25 25 24 23 22 22 21 21 22 22 21 20 19 18 18 18 17 16 16
4 1 2 3 3 5 11 15 11 10 15 19 20 21 22 23 22 19 18 20 22 23 25 26 24 20 17 16 16 17 18 18 17 18 18 19 21 23 24 24 23 21 20 20 21 22 24 24 25 26 24 21 19 21 24 26 28 30 29 27 24 25 25 26 26 25 24 25 26 25 25 23 22 22 22 23 23 23 22 21 20 18 18 17 16 16
5 3 3 3 4 6 10 12 7 3 8 19 23 22 21 22 20 19 20 23 24 26 27 27 24 20 18 19 21 21 22 21 20 19 20 20 21 22 23 24 23 22 21 21 23 25 26 28 27 28 28 25 21 21 24 27 30 31 30 29 27 27 27 27 27 26 26 26 27 27 27 25 24 23 23 24 25 25 24 23 21 20 19 18 18 18
15 10 8 7 8 11 18 24 19 9 11 23 32 31 28 28 25 24 25 27 28 29 28 26 24 23 23 25 25 24 25 25 23 22 23 23 22 22 22 22 22 22 22 23 25 26 28 29 30 31 32 30 26 24 23 26 31 34 33 31 30 29 29 29 28 28 28 28 28 29 29 28 26 25 25 25 26 26 26 25 24 23 22 21 20 20
Wind_Direction
36 44 52 175 207 214 212 178 154 151 127 120 121 127 149 162 201 200 186 189 133 102 276 234 333 261 188 183 158 147 156 158 168 199 206 205 211 215 219 220 209 201 197 199 209 213 219 221 223 229 229 236 244 254 266 276 284 289 292 296 298 301 304 305 303 302 303 305 307 308 308 310 313 315 316 315 313 313 311 310 309 308 307 304 299 294
52 71 5 232 213 184 176 150 121 98 89 95 116 131 142 170 205 190 120 176 116 84 261 147 99 205 187 178 166 155 167 185 193 209 214 206 209 217 226 226 216 209 205 206 213 216 220 221 222 228 232 242 253 262 271 279 285 289 293 295 298 301 302 301 303 305 308 313 317 319 319 320 322 322 320 320 319 319 319 318 315 314 313 312 308 298
34 75 272 249 188 105 85 103 104 93 83 81 104 129 141 186 192 24 69 172 64 71 204 146 109 131 112 184 188 176 195 222 211 218 223 213 214 219 226 229 220 212 211 212 214 216 217 218 222 228 236 245 252 260 270 279 287 291 294 296 297 298 298 299 302 306 312 319 324 326 326 327 329 328 328 328 328 329 330 329 326 323 322 322 321 310
39 255 263 221 137 98 70 72 95 89 75 89 108 123 157 183 144 72 117 157 18 53 150 128 86 22 328 216 229 203 213 246 231 230 232 222 218 220 226 232 223 215 215 214 215 217 216 219 225 229 237 244 251 262 274 282 287 290 291 291 290 292 297 302 307 312 317 323 327 328 330 332 333 333 335 337 338 336 334 333 331 330 331 331 332 322
213 249 249 85 93 100 97 85 100 104 55 359 141 140 159 170 162 164 142 123 32 30 110 117 64 322 217 213 239 212 211 239 235 223 233 232 226 229 237 240 230 222 220 217 215 217 218 222 226 229 236 244 256 267 274 280 283 283 283 284 288 296 304 310 312 315 319 323 324 325 326 328 331 335 340 346 349 347 344 343 344 345 345 343 342 335
252 268 192 93 57 69 103 132 153 131 101 326 227 182 173 163 148 133 127 115 48 19 219 130 60 292 246 212 223 205 207 231 227 210 227 238 237 239 243 241 237 232 227 223 220 220 221 223 226 230 236 246 258 265 269 271 272 274 278 285 295 305 310 311 311 314 319 322 323 326 328 331 337 348 358 1 0 360 359 358 358 358 359 355 349 347
230 2 71 115 91 68 67 94 184 132 106 336 237 185 158 134 128 140 144 128 91 210 231 123 117 267 305 250 213 186 206 229 230 222 226 234 240 243 242 240 239 237 233 229 226 224 223 225 228 232 238 248 256 261 262 263 266 272 281 291 300 306 308 307 310 317 321 323 327 332 338 345 356 10 18 12 4 1 1 360 357 357 2 1 353 348
223 13 33 69 80 77 63 79 190 131 106 258 238 150 137 138 150 166 152 133 168 167 42 59 108 184 307 274 219 171 193 229 233 237 234 229 234 239 240 240 240 240 239 235 231 226 224 227 231 235 242 251 257 262 262 264 271 276 284 295 300 302 303 306 314 321 322 325 331 338 349 2 12 21 21 11 359 355 354 349 348 353 358 358 356 351
196 23 41 93 73 82 152 211 180 133 114 248 190 121 128 140 150 154 127 112 102 90 21 302 354 89 268 284 313 158 190 231 232 232 235 229 229 232 236 239 240 242 241 237 233 227 226 229 233 238 242 250 259 263 265 267 272 279 287 293 295 298 303 311 318 320 322 328 337 345 359 13 19 20 13 3 355 351 346 339 343 351 352 350 351 348
262 287 228 129 96 167 220 228 177 143 146 195 129 89 73 78 76 84 106 105 62 76 234 244 193 168 268 285 350 131 196 230 232 230 230 229 228 230 233 237 239 241 240 237 233 229 229 231 232 236 241 251 257 258 261 263 268 278 285 287 292 303 312 316 318 318 323 333 342 349 2 11 15 15 8 359 353 349 343 339 346 350 348 349 347 343
309 289 229 109 104 198 173 90 166 144 118 135 109 63 49 46 46 51 65 90 72 349 254 233 189 171 268 279 222 185 210 219 220 221 222 224 227 229 231 233 235 236 237 236 233 230 230 230 230 230 235 246 251 254 256 260 266 274 280 290 302 315 318 315 314 315 322 332 341 350 1 3 0 0 359 356 356 356 347 344 350 350 347 346 344 344
340 13 224 312 301 177 105 77 44 30 70 102 80 63 68 3 14 33 358 44 89 261 258 239 178 154 208 267 235 227 245 238 215 215 209 206 217 224 228 229 229 229 231 231 230 229 227 226 224 220 224 235 247 254 253 254 261 270 285 302 312 318 316 311 309 310 317 331 346 357 359 356 353 352 350 349 354 355 350 347 345 346 346 341 338 341
353 48 301 314 315 90 91 98 10 7 38 75 68 69 85 355 4 16 325 9 173 242 254 228 165 161 223 252 244 238 249 249 230 227 221 207 209 217 223 226 226 225 226 227 226 226 225 222 218 215 219 227 242 252 246 247 256 272 297 309 316 318 312 304 303 305 315 332 349 356 354 352 352 350 346 344 347 347 347 347 344 342 343 339 337 336
340 314 328 349 352 12 92 131 236 334 29 66 109 103 100 95 60 296 271 311 266 258 293 284 241 233 276 266 230 225 244 252 246 240 237 229 218 217 220 222 222 222 223 225 224 223 223 218 211 213 218 222 235 245 240 245 257 278 304 312 318 318 307 301 303 309 321 334 343 348 348 346 344 343 341 340 342 341 342 344 345 343 341 336 334 332
74 308 307 312 288 344 58 142 167 148 89 60 153 129 131 154 139 223 228 204 251 266 302 304 262 180 224 254 228 238 267 273 262 252 247 244 237 224 219 218 218 221 222 223 222 221 222 218 211 216 221 221 229 237 239 248 260 282 309 327 337 331 311 305 309 314 324 336 343 344 342 336 330 329 335 339 339 338 339 341 343 343 341 335 330 328
86 253 260 283 274 9 43 191 146 103 70 288 168 105 111 188 139 120 186 175 183 277 284 277 235 212 220 260 283 295 305 309 281 256 245 243 240 226 216 215 216 219 221 221 220 218 219 217 215 221 224 221 223 232 240 244 248 261 300 342 355 352 327 314 319 320 325 336 338 330 325 322 317 319 333 339 337 336 339 343 345 346 345 342 334 328
56 268 281 329 333 67 34 235 124 87 136 239 114 192 234 169 116 109 182 33 69 90 272 273 263 292 320 297 313 344 343 345 346 277 240 236 231 218 215 216 215 218 220 221 221 218 216 214 216 222 223 219 220 235 242 237 234 240 278 342 358 1 343 327 331 329 325 326 327 323 320 316 310 324 341 341 338 339 343 347 350 352 350 345 339 334
126 265 295 2 81 320 349 52 62 60 104 75 292 222 203 113 91 106 127 12 42 191 276 324 269 293 349 306 317 349 329 311 331 326 259 226 216 216 219 218 219 220 222 223 223 220 216 213 216 221 220 216 218 235 239 233 230 232 259 325 345 355 347 334 332 331 325 322 327 332 329 320 321 352 357 344 340 342 347 351 351 351 349 345 343 341
110 303 298 309 209 304 345 72 53 12 39 92 201 173 111 120 184 62 113 98 40 244 285 314 298 268 207 226 290 309 265 261 288 302 269 213 210 217 220 218 219 221 222 224 224 223 219 215 217 220 217 211 214 227 230 231 233 231 239 282 313 334 336 332 329 327 325 324 331 338 336 332 349 6 359 342 339 343 346 348 346 346 345 344 344 342
86 97 287 283 259 316 360 59 184 322 352 31 75 41 32 138 164 172 139 160 177 191 255 306 329 281 229 219 215 237 239 226 225 240 234 221 218 220 220 218 218 221 224 227 227 227 223 217 217 218 212 206 214 226 228 232 236 231 230 253 282 304 315 324 325 322 321 322 330 335 330 324 341 5 350 336 337 341 341 341 341 343 344 346 346 343
57 83 257 291 320 357 350 160 164 185 286 7 38 320 313 90 132 193 28 100 139 156 182 241 303 273 249 210 192 229 242 214 204 210 220 224 224 225 224 221 221 224 226 230 232 232 227 220 218 216 208 204 215 224 227 233 236 231 229 245 269 286 299 313 318 318 316 316 325 328 319 305 316 348 336 331 335 336 336 338 339 341 345 349 347 344
117 97 171 301 343 347 260 251 191 178 182 158 170 208 183 147 142 154 302 316 99 136 163 159 245 271 260 210 210 234 235 221 220 215 219 226 225 226 228 226 227 228 230 233 234 234 231 224 219 213 205 205 213 219 224 232 234 229 230 243 263 278 290 301 308 312 310 309 319 321 302 275 268 286 297 316 328 329 332 334 336 340 343 344 341 340
150 104 86 283 282 268 269 279 280 170 152 127 129 174 149 125 114 130 214 265 60 97 147 129 202 271 263 228 235 253 253 248 238 226 226 231 229 228 230 229 230 232 233 235 235 234 233 227 220 211 206 208 214 217 224 232 233 228 232 242 256 269 281 289 296 303 302 303 312 312 288 260 233 238 263 292 311 316 323 328 331 336 338 339 340 340
101 75 50 310 295 304 304 323 19 50 86 87 24 9 113 84 93 142 175 182 161 181 154 104 270 269 275 282 289 287 279 264 244 228 228 234 235 233 231 231 233 234 235 235 235 234 232 228 221 212 209 212 214 217 225 233 232 228 232 240 250 262 271 276 285 294 295 297 305 297 267 247 206 216 248 274 296 307 316 321 326 331 333 336 341 342
89 71 79 25 344 343 340 350 358 355 31 76 313 328 37 79 87 114 126 91 187 215 157 151 244 254 271 309 323 323 316 279 249 231 228 234 238 237 234 234 235 236 236 236 235 234 232 229 224 216 213 214 215 218 227 235 232 229 233 239 247 256 261 266 276 287 288 288 293 266 236 226 196 210 241 263 284 299 308 314 321 326 329 332 338 344
123 153 119 111 104 284 290 287 269 283 324 320 296 335 9 70 99 159 117 91 218 237 157 166 230 265 289 317 328 332 339 310 283 250 232 236 240 240 239 238 236 236 237 237 235 234 233 231 227 220 216 216 217 218 230 237 233 229 233 238 243 249 254 260 271 282 282 279 279 243 222 220 202 208 237 258 276 294 302 309 317 322 324 329 338 350
100 126 146 145 173 197 205 227 226 179 221 288 295 304 318 96 102 106 102 135 194 184 202 217 216 263 293 301 305 303 304 291 283 270 245 240 240 239 238 239 239 237 238 237 235 234 233 232 231 225 219 219 218 220 232 237 230 229 233 235 238 243 247 254 265 277 277 269 266 233 218 223 214 213 237 257 272 290 298 307 315 316 318 328 345 359
98 332 236 155 195 216 204 219 225 130 201 239 263 271 237 180 140 125 167 212 166 128 270 255 206 214 267 268 266 277 277 261 262 261 254 250 246 241 238 238 239 238 236 235 233 234 235 235 233 228 222 221 219 222 231 234 228 230 233 235 237 239 243 251 262 273 271 262 258 229 215 221 223 224 240 254 265 283 294 304 313 316 321 332 353 5
114 248 235 162 247 256 226 234 241 172 234 228 225 260 262 203 173 184 219 208 161 177 246 240 187 200 248 259 251 255 257 258 266 267 265 263 255 247 242 238 237 236 234 233 234 236 238 238 235 230 225 223 220 222 229 230 227 229 230 232 235 236 241 248 258 268 264 256 252 226 213 219 225 230 239 243 258 281 293 307 318 325 334 348 6 20
117 238 227 137 311 294 269 261 241 199 268 286 257 254 255 237 213 212 229 209 185 217 245 236 215 232 250 252 253 263 267 272 280 281 276 269 258 250 246 242 239 236 233 234 237 238 238 240 238 232 227 223 221 222 226 227 226 227 228 230 231 232 237 245 255 263 260 254 247 222 213 219 224 229 233 236 258 280 293 310 323 334 351 6 18 34
100 257 219 94 354 298 291 298 288 167 220 272 276 267 253 256 251 224 221 211 200 235 254 250 251 265 262 247 253 268 275 277 277 275 272 268 260 251 249 249 246 241 237 238 239 238 238 240 239 233 227 225 223 223 225 226 226 227 228 229 230 231 235 243 253 259 258 252 239 219 214 219 221 225 231 239 261 279 291 310 324 339 4 15 22 33
108 241 17 74 33 282 295 344 351 350 337 273 278 274 257 250 243 214 202 194 188 211 245 259 264 259 257 263 273 278 280 275 269 273 276 275 267 254 250 253 253 249 245 242 239 238 238 239 239 234 229 227 226 225 226 227 226 227 229 229 229 229 232 242 251 255 253 245 232 219 216 219 223 226 230 242 261 275 286 303 319 333 359 17 32 40
128 138 145 115 200 269 292 352 2 4 358 304 269 249 229 222 221 234 261 235 203 182 187 220 236 239 251 319 317 296 289 274 270 278 286 288 284 271 261 259 259 257 254 247 240 237 239 242 243 241 235 231 229 228 229 229 227 226 228 227 227 228 231 240 248 249 244 238 230 221 217 220 224 226 232 245 260 271 279 292 309 328 350 18 62 68
134 139 177 174 198 269 291 340 356 355 330 269 240 195 187 204 200 218 264 258 220 189 199 229 249 262 273 277 263 265 273 274 275 279 284 289 291 286 274 266 264 263 259 252 243 239 241 245 247 246 241 236 234 232 231 231 228 226 227 225 224 227 232 238 244 243 238 234 229 223 219 219 221 224 234 246 255 263 268 274 292 315 331 49 117 106
143 148 175 160 165 257 317 17 358 292 243 246 264 245 225 225 189 209 259 264 232 224 242 260 264 262 266 268 266 272 277 280 280 274 271 276 282 281 275 268 267 267 264 257 246 239 242 246 248 249 245 238 235 234 232 231 227 225 226 226 223 227 233 237 240 240 236 233 227 222 219 218 219 226 237 245 250 255 255 258 276 293 267 197 156 139
150 152 157 134 159 241 1 64 212 257 261 280 303 290 238 240 129 175 297 286 243 213 206 232 253 255 267 281 294 304 297 290 283 271 264 269 277 277 272 266 268 270 269 265 250 239 243 250 253 254 248 240 237 236 235 232 228 223 224 224 223 227 232 235 237 238 237 233 226 221 219 218 221 229 237 242 243 244 242 244 256 259 228 204 180 166
153 142 170 206 208 168 150 214 251 303 314 315 313 194 154 117 133 130 321 282 255 222 197 212 253 270 283 300 336 357 344 326 308 295 291 284 277 274 269 262 265 269 268 266 254 243 247 256 258 256 250 242 238 238 237 234 229 223 221 220 222 227 230 232 236 239 239 236 228 222 219 218 222 229 236 240 238 234 232 232 237 236 218 206 197 189
151 154 176 198 227 114 110 284 312 336 306 275 254 241 220 169 159 135 99 290 280 265 220 204 224 272 294 319 349 7 16 17 341 321 340 327 295 279 268 258 258 263 262 259 253 247 248 255 258 256 250 244 240 239 238 234 229 223 219 217 220 226 229 232 237 241 241 237 230 224 220 218 221 228 235 237 233 230 227 224 227 229 213 205 207 208
70 42 133 147 181 119 123 202 223 234 253 244 249 264 234 173 171 116 51 308 290 298 203 190 220 273 290 314 336 10 38 24 314 308 345 352 332 304 283 268 261 259 258 257 257 257 259 262 263 259 253 247 244 241 238 234 228 221 217 216 220 225 228 233 239 243 243 238 231 226 219 216 221 229 235 235 231 228 223 219 223 225 214 209 212 215
51 33 104 150 206 171 146 188 220 239 249 241 242 238 161 152 146 77 30 280 267 280 185 199 245 281 283 302 327 20 56 348 284 313 350 355 346 326 298 279 263 254 255 257 256 255 254 255 258 257 255 253 250 245 240 234 226 219 216 217 221 225 229 236 242 243 240 235 229 225 218 214 221 229 232 229 225 223 220 216 219 223 221 218 218 220
69 56 149 180 207 179 169 219 267 264 247 243 238 202 161 131 84 69 212 238 232 220 218 223 244 263 260 272 284 275 278 279 277 299 317 318 320 318 298 279 261 245 242 241 236 232 236 243 250 255 258 260 256 249 241 232 223 217 216 218 223 227 231 238 241 237 234 230 227 222 216 215 222 228 228 223 218 217 217 214 217 224 226 226 225 227
178 114 151 173 183 168 171 208 280 290 261 229 182 169 164 142 96 208 215 224 220 215 221 225 227 233 239 246 249 255 264 265 259 260 264 269 278 277 266 266 255 240 237 231 228 232 239 246 252 254 255 257 256 251 243 231 221 217 216 219 225 229 232 235 235 231 229 229 227 221 216 215 220 225 224 220 218 216 216 215 217 223 228 231 233 234
181 188 227 202 177 147 110 137 251 293 256 154 123 116 158 177 217 240 239 247 238 226 221 225 232 244 251 249 251 259 261 254 247 244 240 244 251 246 242 251 256 253 251 244 241 242 241 244 251 255 253 251 251 249 240 229 221 217 217 222 227 229 230 231 231 229 228 228 227 222 216 215 218 221 220 219 219 217 217 218 219 221 226 231 234 235
193 187 212 234 191 148 140 184 207 240 206 166 158 185 214 212 240 268 269 269 263 248 239 239 247 264 271 264 259 261 260 253 247 244 241 243 248 247 248 254 257 254 248 240 238 238 237 237 238 239 242 244 245 242 233 225 220 218 220 225 228 227 228 228 228 228 227 228 227 221 217 217 218 219 218 219 218 218 218 220 222 224 227 231 233 233
218 194 185 230 222 179 194 219 225 245 222 191 202 232 240 239 259 276 276 277 276 267 256 252 259 277 289 287 278 271 266 259 253 251 249 246 247 250 253 255 255 251 244 237 234 233 232 228 221 222 229 231 233 235 229 222 220 220 222 226 227 227 227 227 226 227 227 226 225 219 216 218 219 219 218 218 219 219 220 223 226 227 228 229 231 232
230 201 157 184 253 254 257 248 242 257 260 243 238 250 260 266 275 283 283 281 279 276 270 265 269 281 290 290 285 280 275 267 259 257 255 249 246 247 249 249 248 245 239 234 235 238 234 224 219 224 231 229 228 229 225 221 220 222 224 227 228 229 229 227 227 229 228 225 222 217 215 217 219 219 219 219 221 221 222 226 230 232 232 232 232 234
260 205 179 219 252 265 273 252 227 240 255 258 258 260 262 269 278 286 289 288 287 286 281 278 281 285 285 281 278 278 279 275 267 264 262 256 252 251 250 248 246 243 241 239 240 243 239 230 223 223 224 225 227 227 223 220 221 223 225 228 230 230 229 228 228 228 227 224 220 215 214 215 217 218 219 219 220 220 220 224 229 231 233 234 234 236
282 187 198 234 221 222 260 258 246 251 262 264 262 260 263 272 281 285 289 292 293 291 287 286 286 284 278 274 272 274 278 276 268 265 264 261 259 258 255 250 246 244 245 246 246 246 244 239 232 226 224 228 230 227 223 220 220 221 224 226 228 229 228 227 226 225 225 222 217 213 213 214 216 218 219 219 220 220 221 223 226 230 233 236 238 239
277 270 218 238 246 265 273 268 260 268 277 271 263 262 268 276 281 284 288 291 290 288 288 287 282 274 269 269 269 271 272 271 268 267 267 267 266 263 256 251 250 252 254 254 255 254 252 249 241 231 229 233 232 228 227 225 222 222 224 225 225 225 226 226 224 222 222 220 216 214 213 214 216 219 221 222 222 222 224 226 229 233 235 236 238 241
257 252 212 253 277 266 267 270 264 254 274 274 272 273 276 279 279 277 281 286 286 287 290 287 277 267 268 274 273 270 268 269 270 271 270 271 273 269 260 255 255 260 262 262 262 259 256 254 249 239 233 231 226 223 229 231 227 225 226 227 225 223 223 224 222 220 219 218 216 215 214 215 217 219 221 223 224 223 224 225 227 229 231 232 233 235
232 230 215 230 250 248 257 268 271 256 254 271 278 280 280 281 280 276 278 283 285 288 290 285 275 271 276 279 278 274 272 272 272 271 272 274 275 272 267 262 260 263 265 265 265 263 259 256 252 245 238 232 224 220 225 231 231 230 229 228 225 223 223 223 221 220 218 216 216 216 216 216 217 219 221 224 225 225 225 226 226 227 227 228 229 230